CMP473 MPTO-TIST

Flight info

Callsign CMP473
Flight time N/A
Altitude 19000
Route REMAL1A REMAL A574 PONPO/N0465F350 DCT BAQ/N0459F370 DCT MELLA G633 MAZ RTE12 SJU RTE6 PALCO
Aircraft B737/M-SDE2E3FGHIRWXY/LB1

Departure

Time N/A
Airport Tocumen International Airport (MPTO)

Arrival

Time 2026-05-06 23:40
Airport Cyril E. King Airport (TIST)
Time Latitude Longitude Altitude Speed Heading
2026-05-06 22:20 13.92447 -72.03789 33000 ft 465 kts 41°
2026-05-06 22:21 13.97296 -71.99338 32999 ft 465 kts 41°
2026-05-06 22:21 14.02113 -71.94914 32999 ft 465 kts 41°
2026-05-06 22:22 14.06923 -71.90493 32999 ft 465 kts 41°
2026-05-06 22:22 14.11731 -71.86073 33000 ft 465 kts 41°
2026-05-06 22:23 14.16537 -71.81651 32999 ft 465 kts 41°
2026-05-06 22:23 14.21353 -71.77218 32999 ft 465 kts 41°
2026-05-06 22:24 14.26184 -71.72768 33000 ft 465 kts 41°
2026-05-06 22:24 14.30985 -71.68343 33000 ft 465 kts 41°
2026-05-06 22:25 14.35790 -71.63911 33000 ft 465 kts 41°
2026-05-06 22:25 14.40611 -71.59463 32999 ft 465 kts 41°
2026-05-06 22:26 14.45409 -71.55033 33000 ft 465 kts 41°
2026-05-06 22:26 14.50238 -71.50571 33000 ft 465 kts 41°
2026-05-06 22:27 14.55028 -71.46143 32999 ft 465 kts 41°
2026-05-06 22:27 14.59848 -71.41684 32999 ft 465 kts 41°
2026-05-06 22:28 14.64650 -71.37241 32999 ft 465 kts 41°
2026-05-06 22:28 14.69474 -71.32772 33000 ft 465 kts 42°
2026-05-06 22:29 14.74279 -71.28320 33000 ft 465 kts 42°
2026-05-06 22:29 14.79090 -71.23859 33000 ft 465 kts 42°
2026-05-06 22:30 14.83899 -71.19397 33000 ft 465 kts 42°
2026-05-06 22:30 14.88674 -71.14964 33000 ft 465 kts 42°
2026-05-06 22:31 14.93485 -71.10494 33000 ft 465 kts 42°
2026-05-06 22:31 14.98287 -71.06030 33000 ft 465 kts 42°
2026-05-06 22:32 15.03106 -71.01547 33000 ft 465 kts 42°
2026-05-06 22:32 15.07875 -70.97109 32999 ft 465 kts 42°
2026-05-06 22:33 15.12684 -70.92631 33000 ft 465 kts 42°
2026-05-06 22:33 15.17486 -70.88155 33000 ft 465 kts 42°
2026-05-06 22:34 15.22265 -70.83700 33000 ft 465 kts 42°
2026-05-06 22:34 15.27086 -70.79202 32999 ft 465 kts 42°
2026-05-06 22:35 15.31858 -70.74746 33000 ft 465 kts 42°
2026-05-06 22:35 15.36659 -70.70261 32999 ft 465 kts 42°
2026-05-06 22:36 15.41468 -70.65765 33000 ft 465 kts 42°
2026-05-06 22:36 15.46261 -70.61281 32999 ft 465 kts 42°
2026-05-06 22:37 15.51055 -70.56793 33000 ft 465 kts 42°
2026-05-06 22:37 15.55843 -70.52309 32999 ft 465 kts 42°
2026-05-06 22:38 15.60603 -70.47846 32999 ft 465 kts 42°
2026-05-06 22:38 15.65399 -70.43348 32999 ft 465 kts 42°
2026-05-06 22:39 15.70184 -70.38856 32999 ft 465 kts 42°
2026-05-06 22:39 15.74972 -70.34360 33000 ft 465 kts 42°
2026-05-06 22:40 15.79743 -70.29876 33000 ft 465 kts 42°
2026-05-06 22:40 15.84538 -70.25367 32999 ft 465 kts 42°
2026-05-06 22:41 15.91724 -70.18604 32999 ft 465 kts 42°
2026-05-06 22:42 15.96482 -70.14121 33000 ft 465 kts 42°
2026-05-06 22:42 16.01274 -70.09605 32999 ft 465 kts 42°
2026-05-06 22:43 16.06045 -70.05105 33000 ft 465 kts 42°
2026-05-06 22:43 16.10832 -70.00587 32999 ft 465 kts 42°
2026-05-06 22:44 16.15620 -69.96064 32999 ft 465 kts 42°
2026-05-06 22:44 16.20378 -69.91567 33000 ft 465 kts 42°
2026-05-06 22:45 16.25167 -69.87037 33000 ft 465 kts 42°
2026-05-06 22:45 16.29927 -69.82533 33000 ft 465 kts 42°
2026-05-06 22:46 16.34717 -69.77995 33000 ft 465 kts 42°
2026-05-06 22:46 16.39472 -69.73489 32999 ft 465 kts 42°
2026-05-06 22:47 16.44261 -69.68947 33000 ft 465 kts 42°
2026-05-06 22:47 16.49014 -69.64436 32999 ft 465 kts 42°
2026-05-06 22:48 16.53796 -69.59895 33000 ft 465 kts 42°
2026-05-06 22:48 16.58551 -69.55375 32999 ft 465 kts 42°
2026-05-06 22:49 16.63332 -69.50829 32999 ft 465 kts 42°
2026-05-06 22:49 16.68078 -69.46310 32999 ft 465 kts 42°
2026-05-06 22:50 16.72859 -69.41757 32999 ft 465 kts 42°
2026-05-06 22:50 16.77602 -69.37238 33000 ft 465 kts 42°
2026-05-06 22:51 16.82394 -69.32666 33000 ft 465 kts 43°
2026-05-06 22:51 16.87140 -69.28138 33000 ft 465 kts 43°
2026-05-06 22:52 16.91892 -69.23599 33000 ft 465 kts 43°
2026-05-06 22:52 16.96671 -69.19031 33000 ft 465 kts 43°
2026-05-06 22:53 17.01413 -69.14496 33000 ft 465 kts 43°
2026-05-06 22:53 17.06189 -69.09925 32999 ft 465 kts 43°
2026-05-06 22:54 17.10939 -69.05376 33000 ft 465 kts 43°
2026-05-06 22:54 17.15683 -69.00828 32999 ft 465 kts 43°
2026-05-06 22:55 17.20436 -68.96268 32999 ft 465 kts 43°
2026-05-06 22:55 17.25212 -68.91684 33000 ft 465 kts 43°
2026-05-06 22:56 17.29978 -68.87106 32999 ft 465 kts 43°
2026-05-06 22:56 17.34713 -68.82554 33000 ft 465 kts 43°
2026-05-06 22:57 17.39477 -68.77970 33000 ft 465 kts 43°
2026-05-06 22:57 17.44216 -68.73408 33000 ft 465 kts 43°
2026-05-06 22:58 17.48978 -68.68819 33000 ft 465 kts 43°
2026-05-06 22:58 17.53707 -68.64261 32999 ft 465 kts 43°
2026-05-06 22:59 17.58468 -68.59667 32999 ft 465 kts 43°
2026-05-06 22:59 17.63192 -68.55106 32999 ft 465 kts 43°
2026-05-06 23:00 17.67953 -68.50504 33000 ft 465 kts 43°
2026-05-06 23:00 17.72701 -68.45913 32999 ft 465 kts 43°
2026-05-06 23:01 17.77441 -68.41326 33000 ft 465 kts 43°
2026-05-06 23:01 17.82212 -68.36705 32999 ft 465 kts 43°
2026-05-06 23:02 17.86948 -68.32115 33000 ft 465 kts 43°
2026-05-06 23:02 17.91668 -68.27537 33000 ft 465 kts 43°
2026-05-06 23:03 17.96439 -68.22906 33000 ft 465 kts 43°
2026-05-06 23:03 18.01170 -68.18310 33000 ft 465 kts 43°
2026-05-06 23:04 18.05899 -68.13712 32999 ft 465 kts 43°
2026-05-06 23:04 18.10655 -68.09086 33000 ft 465 kts 43°
2026-05-06 23:05 18.15299 -68.04436 32999 ft 465 kts 47°
2026-05-06 23:05 18.18876 -67.98819 33000 ft 465 kts 68°
2026-05-06 23:06 18.20502 -67.92242 32999 ft 466 kts 83°
2026-05-06 23:06 18.20944 -67.85465 32999 ft 466 kts 86°
2026-05-06 23:07 18.21421 -67.78660 33000 ft 465 kts 85°
2026-05-06 23:07 18.21889 -67.71910 33000 ft 465 kts 86°
2026-05-06 23:08 18.22346 -67.65146 33000 ft 465 kts 86°
2026-05-06 23:08 18.22805 -67.58323 33000 ft 465 kts 86°
2026-05-06 23:09 18.23253 -67.51585 32944 ft 467 kts 86°
2026-05-06 23:09 18.23479 -67.48166 32749 ft 467 kts 86°
2026-05-06 23:09 18.23703 -67.44783 32562 ft 464 kts 86°
2026-05-06 23:09 18.23926 -67.41393 32374 ft 461 kts 86°
2026-05-06 23:10 18.24145 -67.38071 32189 ft 459 kts 86°
2026-05-06 23:10 18.24363 -67.34744 32003 ft 458 kts 86°
2026-05-06 23:10 18.24582 -67.31372 31813 ft 457 kts 86°
2026-05-06 23:10 18.24797 -67.28083 31628 ft 456 kts 86°
2026-05-06 23:11 18.25014 -67.24731 31439 ft 455 kts 86°
2026-05-06 23:11 18.25226 -67.21457 31253 ft 453 kts 86°
2026-05-06 23:11 18.25442 -67.18115 30863 ft 455 kts 86°
2026-05-06 23:11 18.25633 -67.14816 30445 ft 451 kts 88°
2026-05-06 23:12 18.25635 -67.11560 30022 ft 446 kts 91°
2026-05-06 23:12 18.25529 -67.08333 29599 ft 441 kts 92°
2026-05-06 23:12 18.25441 -67.05128 29175 ft 437 kts 91°
2026-05-06 23:12 18.25377 -67.01964 28753 ft 435 kts 91°
2026-05-06 23:13 18.25312 -66.98793 28327 ft 432 kts 91°
2026-05-06 23:13 18.25281 -66.97316 28128 ft 431 kts 91°
2026-05-06 23:13 18.25212 -66.94175 27702 ft 429 kts 91°
2026-05-06 23:13 18.25145 -66.91053 27276 ft 426 kts 91°
2026-05-06 23:14 18.25079 -66.87997 26854 ft 419 kts 91°
2026-05-06 23:14 18.25013 -66.84946 26427 ft 413 kts 91°
2026-05-06 23:14 18.24949 -66.81970 26006 ft 409 kts 91°
2026-05-06 23:14 18.24884 -66.78993 25580 ft 406 kts 91°
2026-05-06 23:15 18.24819 -66.76025 25153 ft 404 kts 91°
2026-05-06 23:15 18.24754 -66.73109 24732 ft 402 kts 91°
2026-05-06 23:15 18.24688 -66.70144 24301 ft 400 kts 91°
2026-05-06 23:15 18.24623 -66.67239 23875 ft 396 kts 91°
2026-05-06 23:16 18.24558 -66.64374 23450 ft 391 kts 91°
2026-05-06 23:16 18.24494 -66.61525 23023 ft 387 kts 91°
2026-05-06 23:16 18.24431 -66.58752 22601 ft 382 kts 91°
2026-05-06 23:16 18.24367 -66.55975 22174 ft 378 kts 91°
2026-05-06 23:17 18.24327 -66.53231 21747 ft 373 kts 88°
2026-05-06 23:17 18.24563 -66.50520 21318 ft 369 kts 80°
2026-05-06 23:17 18.25176 -66.47940 20895 ft 365 kts 70°
2026-05-06 23:17 18.26134 -66.45456 20467 ft 362 kts 66°
2026-05-06 23:18 18.27006 -66.43027 20044 ft 358 kts 74°
2026-05-06 23:18 18.27577 -66.40476 19619 ft 356 kts 77°
2026-05-06 23:18 18.28114 -66.37955 19195 ft 354 kts 77°
2026-05-06 23:18 18.28672 -66.35455 18771 ft 352 kts 76°
2026-05-06 23:19 18.29233 -66.32936 18341 ft 350 kts 77°
2026-05-06 23:19 18.29786 -66.30444 17913 ft 347 kts 77°
2026-05-06 23:19 18.30329 -66.28007 17491 ft 344 kts 77°
2026-05-06 23:19 18.30875 -66.25555 17063 ft 342 kts 77°
2026-05-06 23:20 18.31411 -66.23148 16640 ft 339 kts 77°
2026-05-06 23:20 18.31949 -66.20740 16214 ft 337 kts 77°
2026-05-06 23:20 18.32477 -66.18372 15792 ft 335 kts 77°
2026-05-06 23:20 18.33008 -66.15998 15366 ft 332 kts 77°
2026-05-06 23:21 18.33538 -66.13629 14938 ft 330 kts 77°
2026-05-06 23:21 18.34064 -66.11276 14511 ft 328 kts 77°
2026-05-06 23:21 18.34586 -66.08949 14086 ft 327 kts 77°
2026-05-06 23:21 18.35107 -66.06623 13659 ft 325 kts 77°
2026-05-06 23:22 18.35620 -66.04335 13216 ft 324 kts 77°
2026-05-06 23:22 18.36140 -66.02020 12787 ft 322 kts 77°
2026-05-06 23:22 18.36656 -65.99725 12360 ft 320 kts 77°
2026-05-06 23:22 18.37169 -65.97443 11933 ft 319 kts 77°
2026-05-06 23:23 18.37672 -65.95207 11512 ft 317 kts 77°
2026-05-06 23:23 18.38185 -65.92928 11082 ft 316 kts 77°
2026-05-06 23:23 18.38693 -65.90676 10655 ft 315 kts 77°
2026-05-06 23:23 18.39191 -65.88470 10235 ft 313 kts 77°
2026-05-06 23:24 18.39698 -65.86224 9805 ft 312 kts 76°
2026-05-06 23:24 18.40186 -65.83997 9377 ft 311 kts 79°
2026-05-06 23:24 18.40145 -65.81753 8944 ft 309 kts 106°
2026-05-06 23:24 18.39145 -65.79802 8530 ft 306 kts 127°
2026-05-06 23:25 18.37960 -65.77954 8103 ft 305 kts 115°
2026-05-06 23:25 18.37543 -65.75845 7667 ft 291 kts 85°
2026-05-06 23:25 18.37941 -65.73909 7270 ft 279 kts 75°
2026-05-06 23:25 18.38247 -65.71929 6840 ft 268 kts 88°
2026-05-06 23:26 18.38213 -65.70008 6416 ft 259 kts 93°
2026-05-06 23:26 18.38086 -65.68149 6072 ft 252 kts 95°
2026-05-06 23:26 18.37929 -65.66312 5748 ft 252 kts 95°
2026-05-06 23:26 18.37753 -65.64483 5423 ft 251 kts 96°
2026-05-06 23:27 18.37568 -65.62643 5086 ft 251 kts 96°
2026-05-06 23:27 18.37380 -65.60819 4736 ft 252 kts 96°
2026-05-06 23:27 18.37190 -65.58993 4388 ft 252 kts 96°
2026-05-06 23:27 18.36999 -65.57177 4041 ft 253 kts 96°
2026-05-06 23:28 18.36804 -65.55319 3687 ft 253 kts 96°
2026-05-06 23:28 18.36613 -65.53503 3341 ft 253 kts 96°
2026-05-06 23:28 18.36420 -65.51678 3072 ft 247 kts 96°
2026-05-06 23:28 18.36234 -65.49917 3054 ft 233 kts 96°
2026-05-06 23:29 18.36060 -65.48278 3041 ft 215 kts 96°
2026-05-06 23:29 18.35899 -65.46755 3042 ft 208 kts 96°
2026-05-06 23:29 18.35740 -65.45254 3046 ft 200 kts 96°
2026-05-06 23:29 18.35595 -65.43887 3083 ft 174 kts 96°
2026-05-06 23:30 18.35463 -65.42641 3081 ft 172 kts 96°
2026-05-06 23:30 18.35331 -65.41388 3080 ft 171 kts 96°
2026-05-06 23:30 18.35199 -65.40140 3054 ft 171 kts 96°
2026-05-06 23:30 18.35068 -65.38905 3015 ft 165 kts 96°
2026-05-06 23:31 18.34938 -65.37688 3025 ft 169 kts 96°
2026-05-06 23:31 18.34807 -65.36459 3018 ft 170 kts 96°
2026-05-06 23:31 18.34675 -65.35217 3015 ft 171 kts 96°
2026-05-06 23:31 18.34541 -65.33965 3014 ft 171 kts 97°
2026-05-06 23:32 18.34409 -65.32726 3014 ft 171 kts 97°
2026-05-06 23:32 18.34276 -65.31475 3013 ft 171 kts 97°
2026-05-06 23:32 18.34143 -65.30228 3013 ft 171 kts 97°
2026-05-06 23:32 18.34010 -65.28979 3013 ft 171 kts 97°
2026-05-06 23:33 18.33877 -65.27737 3013 ft 171 kts 97°
2026-05-06 23:33 18.33744 -65.26498 3013 ft 171 kts 97°
2026-05-06 23:33 18.33610 -65.25240 3013 ft 171 kts 97°
2026-05-06 23:33 18.33477 -65.24000 3013 ft 171 kts 97°
2026-05-06 23:34 18.33343 -65.22747 3013 ft 171 kts 97°
2026-05-06 23:34 18.33211 -65.21517 3013 ft 171 kts 97°
2026-05-06 23:34 18.33076 -65.20263 3013 ft 171 kts 97°
2026-05-06 23:34 18.32942 -65.19014 3013 ft 171 kts 97°
2026-05-06 23:35 18.32821 -65.17784 3005 ft 167 kts 93°
2026-05-06 23:35 18.32815 -65.16633 3025 ft 151 kts 90°
2026-05-06 23:35 18.32846 -65.15527 3034 ft 151 kts 87°
2026-05-06 23:35 18.32904 -65.14417 3031 ft 150 kts 87°
2026-05-06 23:36 18.32967 -65.13328 3034 ft 150 kts 87°
2026-05-06 23:36 18.33022 -65.12228 3018 ft 150 kts 85°
2026-05-06 23:36 18.33114 -65.11146 2853 ft 144 kts 85°
2026-05-06 23:36 18.33195 -65.10107 2481 ft 141 kts 86°
2026-05-06 23:37 18.33248 -65.09087 2103 ft 139 kts 86°
2026-05-06 23:37 18.33299 -65.08094 1801 ft 136 kts 89°
2026-05-06 23:37 18.33320 -65.07103 1647 ft 134 kts 90°
2026-05-06 23:37 18.33334 -65.06113 1595 ft 137 kts 89°
2026-05-06 23:38 18.33388 -65.05104 1429 ft 138 kts 86°
2026-05-06 23:38 18.33443 -65.04108 1239 ft 136 kts 88°
2026-05-06 23:38 18.33468 -65.03115 1070 ft 136 kts 88°
2026-05-06 23:38 18.33515 -65.02110 831 ft 136 kts 87°
2026-05-06 23:39 18.33561 -65.01130 607 ft 134 kts 87°
2026-05-06 23:39 18.33610 -65.00144 431 ft 135 kts 87°
2026-05-06 23:39 18.33652 -64.99161 196 ft 134 kts 88°
2026-05-06 23:39 18.33695 -64.98209 52 ft 128 kts 87°
2026-05-06 23:40 18.33730 -64.97358 30 ft 90 kts 86°
2026-05-06 23:40 18.33750 -64.96938 32 ft 32 kts 88°
2026-05-06 23:40 18.33756 -64.96758 32 ft 21 kts 88°
2026-05-06 23:40 18.33698 -64.96684 32 ft 13 kts 196°
2026-05-06 23:41 18.33672 -64.96764 32 ft 11 kts 272°